Location: Berg
(47.2344°N, 9.5296°E)
Time: 00:39:32
(UTC+00:00)

Nauka - Pass Details

Date: 22 September 2021
Orbit: 417 x 423 km, 51.6° (Epoch: 19 October)

Event Time Altitude Azimuth Distance (km) Brightness Sun altitude
Rises 20:27:46 0° 288° (WNW) 2,367 ? -30.5°
Reaches altitude 10° 20:29:57 10° 296° (WNW) 1,503 ? -30.8°
Enters shadow 20:30:23 13° 299° (WNW) 1,339 ? -30.8°
